User: anonymous   Login
Location: Unspecified
(0.0000°N, 0.0000°E)
Time: 21:45:41
(UTC+00:00)
Language:

COSMOS 2496 - Orbit

View from above orbital plane
View from above orbital plane
View from above satellite
View from above satellite

Ground track
Ground track

The orbit data is extracted from the following two-line orbital elements,

1 39761U 14028A   17117.76423528 +.00000010 +00000-0 +00000-0 0  9996
2 39761 082.4503 039.2458 0019701 144.1331 216.1075 12.42867589132983
Epoch (UTC): 27 April 2017 18:20:29
Eccentricity: 0.0019701
inclination: 82.4503°
perigee height: 1479 km
apogee height: 1510 km
right ascension of ascending node: 39.2458°
argument of perigee: 144.1331°
revolutions per day: 12.42867589
mean anomaly at epoch: 216.1075°
orbit number at epoch: 13298

The dashed part of the orbit path shows where the satellite is in the earth's shadow,  

DLR